TimeCDT,TemperatureF,Dew PointF,Humidity,Sea Level PressureIn,VisibilityMPH,Wind Direction,Wind SpeedMPH,Gust SpeedMPH,PrecipitationIn,Events,Conditions,WindDirDegrees,DateUTC
12:14 AM,50.2,35.2,57,30.34,10.0,East,5.8,-,N/A,,Clear,90,2013-05-24 05:14:00
12:34 AM,49.3,35.2,58,30.34,10.0,East,5.8,-,N/A,,Clear,100,2013-05-24 05:34:00
12:54 AM,47.7,36.5,65,30.35,10.0,ESE,6.9,-,N/A,,Clear,110,2013-05-24 05:54:00
1:14 AM,46.9,36.0,66,30.35,10.0,ESE,5.8,-,N/A,,Clear,110,2013-05-24 06:14:00
1:34 AM,46.6,35.8,66,30.35,10.0,ESE,4.6,-,N/A,,Clear,120,2013-05-24 06:34:00
1:54 AM,45.5,35.6,68,30.35,10.0,SE,3.5,-,N/A,,Clear,130,2013-05-24 06:54:00
2:14 AM,44.8,35.1,69,30.35,10.0,ESE,3.5,-,N/A,,Clear,110,2013-05-24 07:14:00
2:33 AM,45.0,34.2,66,30.35,10.0,East,3.5,-,N/A,,Clear,90,2013-05-24 07:33:00
2:54 AM,44.4,33.6,66,30.35,10.0,East,4.6,-,N/A,,Clear,100,2013-05-24 07:54:00
3:14 AM,43.9,33.8,68,30.35,10.0,ESE,3.5,-,N/A,,Clear,110,2013-05-24 08:14:00
3:33 AM,43.2,33.8,70,30.35,10.0,East,3.5,-,N/A,,Clear,100,2013-05-24 08:33:00
3:54 AM,41.9,33.4,72,30.34,10.0,Calm,Calm,-,N/A,,Clear,0,2013-05-24 08:54:00
4:14 AM,41.9,34.2,74,30.35,10.0,Calm,Calm,-,N/A,,Clear,0,2013-05-24 09:14:00
4:34 AM,41.2,34.0,76,30.35,10.0,East,4.6,-,N/A,,Clear,100,2013-05-24 09:34:00
4:53 AM,40.8,33.4,75,30.36,10.0,ESE,3.5,-,N/A,,Clear,120,2013-05-24 09:53:00
5:14 AM,39.9,33.8,79,30.36,10.0,Calm,Calm,-,N/A,,Clear,0,2013-05-24 10:14:00
5:34 AM,38.7,33.3,81,30.36,10.0,Calm,Calm,-,N/A,,Clear,0,2013-05-24 10:34:00
5:53 AM,38.3,33.1,81,30.37,10.0,East,3.5,-,N/A,,Clear,100,2013-05-24 10:53:00
6:14 AM,39.9,33.8,79,30.36,10.0,East,5.8,-,N/A,,Clear,80,2013-05-24 11:14:00
6:34 AM,42.6,33.8,71,30.36,10.0,East,8.1,-,N/A,,Clear,90,2013-05-24 11:34:00
6:54 AM,43.7,34.9,71,30.36,10.0,East,5.8,-,N/A,,Clear,90,2013-05-24 11:54:00
7:14 AM,45.9,35.6,67,30.36,10.0,ESE,9.2,-,N/A,,Clear,110,2013-05-24 12:14:00
7:33 AM,47.1,36.5,67,30.36,10.0,ESE,9.2,-,N/A,,Clear,110,2013-05-24 12:33:00
7:53 AM,48.4,37.8,67,30.36,10.0,ESE,10.4,-,N/A,,Clear,120,2013-05-24 12:53:00
8:13 AM,49.6,38.1,65,30.37,10.0,ESE,10.4,-,N/A,,Clear,120,2013-05-24 13:13:00
8:33 AM,50.7,38.8,64,30.36,10.0,ESE,12.7,-,N/A,,Clear,120,2013-05-24 13:33:00
8:54 AM,52.7,39.4,61,30.36,10.0,ESE,12.7,-,N/A,,Clear,120,2013-05-24 13:54:00
9:06 AM,52.9,39.7,61,30.36,10.0,SE,10.4,-,N/A,,Clear,130,2013-05-24 14:06:00
9:33 AM,54.5,40.8,60,30.36,10.0,SE,11.5,16.1,N/A,,Clear,130,2013-05-24 14:33:00
9:54 AM,55.4,41.5,60,30.36,10.0,ESE,10.4,-,N/A,,Clear,120,2013-05-24 14:54:00
10:14 AM,56.7,42.8,60,30.35,10.0,ESE,11.5,-,N/A,,Clear,120,2013-05-24 15:14:00
10:34 AM,58.3,43.9,59,30.35,10.0,SE,12.7,-,N/A,,Clear,130,2013-05-24 15:34:00
10:54 AM,59.2,43.3,56,30.34,10.0,SE,13.8,-,N/A,,Clear,130,2013-05-24 15:54:00
11:14 AM,60.6,43.7,54,30.34,10.0,SE,10.4,-,N/A,,Clear,140,2013-05-24 16:14:00
11:34 AM,61.3,42.3,50,30.33,10.0,SE,12.7,18.4,N/A,,Clear,130,2013-05-24 16:34:00
11:54 AM,62.6,41.0,45,30.33,10.0,SE,8.1,17.3,N/A,,Clear,140,2013-05-24 16:54:00
12:13 PM,63.1,41.4,45,30.32,10.0,SE,11.5,-,N/A,,Clear,130,2013-05-24 17:13:00
12:34 PM,64.6,42.4,44,30.31,10.0,SSE,11.5,18.4,N/A,,Clear,150,2013-05-24 17:34:00
12:53 PM,63.7,42.1,45,30.30,10.0,ESE,13.8,18.4,N/A,,Clear,120,2013-05-24 17:53:00
1:14 PM,64.9,42.3,44,30.29,10.0,ESE,16.1,21.9,N/A,,Clear,120,2013-05-24 18:14:00
1:34 PM,65.1,41.0,41,30.28,10.0,SE,11.5,23.0,N/A,,Clear,130,2013-05-24 18:34:00
1:54 PM,65.1,41.5,42,30.27,10.0,ESE,16.1,-,N/A,,Clear,120,2013-05-24 18:54:00
2:13 PM,67.1,43.2,42,30.25,10.0,SE,17.3,20.7,N/A,,Clear,130,2013-05-24 19:13:00
2:34 PM,66.6,41.4,40,30.25,10.0,SE,13.8,19.6,N/A,,Mostly Cloudy,130,2013-05-24 19:34:00
2:54 PM,67.1,39.7,37,30.24,10.0,SE,12.7,20.7,N/A,,Scattered Clouds,140,2013-05-24 19:54:00
3:11 PM,67.5,41.5,39,30.24,10.0,SE,13.8,19.6,N/A,,Scattered Clouds,130,2013-05-24 20:11:00
3:34 PM,68.5,41.9,38,30.23,10.0,SE,15.0,20.7,N/A,,Scattered Clouds,130,2013-05-24 20:34:00
3:41 PM,67.8,41.5,38,30.23,10.0,ESE,13.8,23.0,N/A,,Mostly Cloudy,120,2013-05-24 20:41:00
4:05 PM,66.2,42.8,43,30.22,10.0,ESE,15.0,20.7,N/A,,Mostly Cloudy,120,2013-05-24 21:05:00
4:14 PM,67.1,42.6,41,30.22,10.0,ESE,11.5,-,N/A,,Overcast,120,2013-05-24 21:14:00
4:34 PM,66.2,42.1,41,30.24,10.0,SE,8.1,-,N/A,,Overcast,130,2013-05-24 21:34:00
4:54 PM,66.0,43.7,44,30.27,10.0,SE,5.8,-,N/A,,Overcast,140,2013-05-24 21:54:00
5:14 PM,64.8,45.7,50,30.28,10.0,Calm,Calm,-,N/A,,Overcast,0,2013-05-24 22:14:00
5:33 PM,64.6,45.7,50,30.27,10.0,SSE,3.5,-,N/A,Rain,Light Rain,150,2013-05-24 22:33:00
5:54 PM,64.0,45.0,50,30.24,10.0,ESE,8.1,-,N/A,Rain,Light Rain,110,2013-05-24 22:54:00
6:13 PM,61.9,47.7,60,30.19,10.0,East,13.8,-,N/A,Rain,Light Rain,90,2013-05-24 23:13:00
6:22 PM,60.6,48.9,65,30.16,10.0,East,15.0,-,N/A,Rain,Light Rain,90,2013-05-24 23:22:00
6:45 PM,60.8,48.2,63,30.19,10.0,East,8.1,-,N/A,,Scattered Clouds,100,2013-05-24 23:45:00
7:05 PM,60.8,48.2,63,30.20,10.0,East,8.1,-,N/A,,Mostly Cloudy,100,2013-05-25 00:05:00
7:25 PM,60.8,50.0,68,30.22,10.0,ESE,6.9,-,N/A,,Overcast,110,2013-05-25 00:25:00
7:45 PM,60.8,50.0,68,30.22,10.0,ESE,8.1,-,N/A,,Overcast,110,2013-05-25 00:45:00
8:05 PM,59.0,51.8,77,30.20,10.0,East,10.4,-,N/A,,Overcast,100,2013-05-25 01:05:00
8:25 PM,59.0,51.8,77,30.20,10.0,East,9.2,-,N/A,,Overcast,90,2013-05-25 01:25:00
8:45 PM,57.2,51.8,82,30.19,10.0,ESE,11.5,-,N/A,,Overcast,110,2013-05-25 01:45:00
9:05 PM,57.2,51.8,82,30.19,10.0,ESE,12.7,-,N/A,,Overcast,110,2013-05-25 02:05:00
9:25 PM,57.2,51.8,82,30.19,10.0,ESE,15.0,18.4,N/A,,Overcast,110,2013-05-25 02:25:00
9:45 PM,55.4,51.8,88,30.19,10.0,East,17.3,-,N/A,,Overcast,100,2013-05-25 02:45:00
10:05 PM,55.4,51.8,88,30.22,10.0,ESE,12.7,-,N/A,,Overcast,110,2013-05-25 03:05:00
10:25 PM,55.4,51.8,88,30.23,10.0,East,10.4,-,N/A,,Overcast,90,2013-05-25 03:25:00
10:45 PM,55.4,51.8,88,30.23,10.0,ESE,13.8,-,N/A,,Overcast,110,2013-05-25 03:45:00
11:05 PM,55.4,50.0,82,30.23,10.0,East,13.8,-,N/A,,Overcast,100,2013-05-25 04:05:00
11:13 PM,55.9,50.5,82,30.23,10.0,East,11.5,-,N/A,,Overcast,100,2013-05-25 04:13:00
11:34 PM,55.4,51.1,85,30.23,10.0,East,9.2,-,N/A,,Overcast,90,2013-05-25 04:34:00
11:54 PM,55.6,50.9,84,30.24,10.0,ESE,10.4,-,N/A,,Overcast,110,2013-05-25 04:54:00